User: anonymous
Location: Clatteringshaws Loch
(55.0508°N, 4.2860°W)
Time: 18:12:07
(UTC+01:00)
Language:

Cosmos 2221 Rocket - Orbit

View from above orbital plane
View from above orbital plane
View from above satellite
View from above satellite

Ground track
Ground track

The orbit data is extracted from the following two-line orbital elements,

1 22237U 92080B   14206.51354715  .00000161  00000-0  19079-4 0  3878
2 22237 082.5120 021.3721 0021109 066.3250 346.1438 14.77873321167193
Epoch (UTC): 25 July 2014 12:19:30
Eccentricity: 0.0021109
inclination: 82.5120°
perigee height: 621 km
apogee height: 651 km
right ascension of ascending node: 21.3721°
argument of perigee: 66.3250°
revolutions per day: 14.77873321
mean anomaly at epoch: 346.1438°
orbit number at epoch: 16719

The dashed part of the orbit path shows where the satellite is in the earth's shadow,  

DLR